Weather History for Reno, NV

Change the Weather History Date:

Sunday, October 21, 2012

  Actual Average Record
Temperature  
Mean Temperature 54 °F 52 °F  
Max Temperature 65 °F 67 °F 84 °F (2003)
Min Temperature 42 °F 37 °F 18 °F (1996)
Degree Days  
Heating Degree Days 11 13  
Month to date heating degree days 76 197  
Since 1 July heating degree days 77 287  
Cooling Degree Days 0 0  
Month to date cooling degree days 17 4  
Year to date cooling degree days 1272 838  
Growing Degree Days 3 (Base 50)    
Moisture  
Dew Point 24 °F    
Average Humidity 36    
Maximum Humidity 62    
Minimum Humidity 9    
Precipitation  
Precipitation 0.00 in 0.02 in 0.24 in (1941)
Month to date precipitation 0.08 0.34  
Year to date precipitation 2.81 5.38  
Snow  
Snow 0.00 in 0.00 in T in (1961)
Month to date snowfall 0.0 0.1  
Since 1 July snowfall 0.0 0.2  
Since 1 September snowfall 0.0 0.2  
Snow Depth 0.00 in    
Sea Level Pressure  
Sea Level Pressure 29.71 in    
Wind  
Wind Speed 11 mph (SW)    
Max Wind Speed 37 mph    
Max Gust Speed 46 mph    
Visibility 10 miles    
Events      
T = Trace of Precipitation, MM = Missing Value Source: NWS Daily Summary

Daily Weather History Graph

Daily Weather History Graph

Search for Another Location

Airport:

Trip Planner

Search our weather history database for the weather conditions in past years. The results will help you decide how hot, cold, wet, or windy it might be!

Date:

Astronomy

Oct. 21, 2012 Rise Set
Actual Time 7:15 AM PDT 6:10 PM PDT
Civil Twilight 6:48 AM PDT 6:37 PM PDT
Nautical Twilight 6:17 AM PDT 7:09 PM PDT
Astronomical Twilight 5:46 AM PDT 7:40 PM PDT
Moon 1:39 PM PDT (10/21) No Moon Set
Length of Visible Light 11h 49m
Length of Day
10h 54m
Waxing Crescent, 46% of the Moon is Illuminated
Oct 21
Waxing Crescent
Oct 21
First Quarter
Oct 29
Full
Nov 6
Last Quarter
Nov 13
New

Hourly Weather History & Observations

Time (PDT) Temp. Windchill Dew Point Humidity Pressure Visibility Wind Dir Wind Speed Gust Speed Precip Events Conditions
12:55 AM 53.1 °F - 36.0 °F 52% 29.73 in 10.0 mi West 6.9 mph - N/A   Partly Cloudy
1:55 AM 51.1 °F - 35.1 °F 54% 29.73 in 10.0 mi Calm Calm - N/A   Partly Cloudy
2:55 AM 50.0 °F - 35.1 °F 57% 29.73 in 10.0 mi Calm Calm - N/A   Scattered Clouds
3:55 AM 48.9 °F - 34.0 °F 56% 29.71 in 10.0 mi NNW 4.6 mph - N/A   Scattered Clouds
4:55 AM 46.0 °F - 33.1 °F 61% 29.72 in 10.0 mi Calm Calm - N/A   Clear
5:55 AM 45.0 °F - 32.0 °F 60% 29.75 in 10.0 mi Calm Calm - N/A   Clear
6:55 AM 44.1 °F 42.5 °F 30.9 °F 60% 29.76 in 10.0 mi WSW 3.5 mph - N/A   Scattered Clouds
7:55 AM 44.1 °F 41.5 °F 28.9 °F 55% 29.76 in 10.0 mi North 4.6 mph - N/A   Mostly Cloudy
8:55 AM 51.1 °F - 30.9 °F 46% 29.76 in 10.0 mi Calm Calm - N/A   Mostly Cloudy
9:55 AM 57.0 °F - 25.0 °F 29% 29.74 in 10.0 mi NE 3.5 mph - N/A   Mostly Cloudy
10:55 AM 62.1 °F - 18.0 °F 18% 29.72 in 10.0 mi NNW 8.1 mph - N/A   Mostly Cloudy
11:55 AM 62.1 °F - 3.0 °F 9% 29.73 in 10.0 mi Variable 4.6 mph - N/A   Mostly Cloudy
12:55 PM 63.0 °F - 3.0 °F 9% 29.71 in 10.0 mi West 9.2 mph - N/A   Mostly Cloudy
1:55 PM 63.0 °F - 5.0 °F 10% 29.71 in 10.0 mi WSW 17.3 mph 26.5 mph N/A   Mostly Cloudy
2:55 PM 63.0 °F - 10.9 °F 13% 29.70 in 10.0 mi South 9.2 mph 17.3 mph N/A   Mostly Cloudy
3:55 PM 61.0 °F - 21.0 °F 21% 29.68 in 10.0 mi South 33.4 mph 41.4 mph N/A   Mostly Cloudy
4:55 PM 59.0 °F - 25.0 °F 27% 29.70 in 10.0 mi South 28.8 mph 36.8 mph N/A   Mostly Cloudy
5:55 PM 55.9 °F - 24.1 °F 29% 29.72 in 10.0 mi South 28.8 mph 36.8 mph N/A   Mostly Cloudy
6:55 PM 55.0 °F - 21.9 °F 28% 29.71 in 10.0 mi South 20.7 mph 32.2 mph N/A   Mostly Cloudy
7:55 PM 54.0 °F - 24.1 °F 31% 29.71 in 10.0 mi SSW 20.7 mph 28.8 mph N/A   Scattered Clouds
8:55 PM 54.0 °F - 24.1 °F 31% 29.71 in 10.0 mi SSW 9.2 mph - N/A   Scattered Clouds
9:55 PM 54.0 °F - 21.0 °F 28% 29.68 in 10.0 mi South 12.7 mph 20.7 mph N/A   Scattered Clouds
10:55 PM 54.0 °F - 21.0 °F 28% 29.67 in 10.0 mi SSW 10.4 mph - N/A   Mostly Cloudy
11:55 PM 55.0 °F - 23.0 °F 29% 29.64 in 10.0 mi Variable 5.8 mph - N/A   Mostly Cloudy